IZ1CYF-13 Weather Reports


time (UTC)temp
C
wind
direction
speed
KPH
gust
KPH
rain 1hr
cm
rain 24hr
cm
rain mn
cm
humidity
%
barometer
mb
20260503172859 20 0.0 0.0 0.00 0.00 0.00 43 1017.7
20260503171853 21 0.0 0.0 0.00 0.00 0.00 43 1017.6
20260503170854 21 0.0 0.0 0.00 0.00 0.00 44 1017.6
20260503150853 21 0.0 0.0 0.00 0.00 0.00 35 1017.6
20260503130854 23 0.0 0.0 0.00 0.00 0.00 34 1018.4
20260503080855 20 0.0 0.0 0.00 0.00 0.00 41 1020.5
20260503072854 21 0.0 0.0 0.00 0.00 0.00 40 1020.2
20260503071855 21 0.0 0.0 0.00 0.00 0.00 40 1020.2
20260503070854 18 0.0 0.0 0.00 0.00 0.00 44 1020.9
20260503054855 17 0.0 0.0 0.00 0.00 0.00 44 1021.2
20260503053855 18 0.0 0.0 0.00 0.00 0.00 42 1020.8
20260503052854 17 0.0 0.0 0.00 0.00 0.00 45 1021.2
20260503051854 19 0.0 0.0 0.00 0.00 0.00 41 1020.7
20260503050855 17 0.0 0.0 0.00 0.00 0.00 45 1021.2
20260503045911 17 0.0 0.0 0.00 0.00 0.00 43 1021.1
20260503044855 17 0.0 0.0 0.00 0.00 0.00 44 1020.9
20260503043855 16 0.0 0.0 0.00 0.00 0.00 47 1021.3
20260503042855 17 0.0 0.0 0.00 0.00 0.00 45 1021.1
20260503041855 15 0.0 0.0 0.00 0.00 0.00 48 1021.5
20260503040855 15 0.0 0.0 0.00 0.00 0.00 49 1021.5
20260503035855 15 0.0 0.0 0.00 0.00 0.00 49 1021.6
20260503034855 16 0.0 0.0 0.00 0.00 0.00 47 1021.4
20260503033910 15 0.0 0.0 0.00 0.00 0.00 48 1021.6
20260503032855 15 0.0 0.0 0.00 0.00 0.00 49 1021.6
20260503031855 15 0.0 0.0 0.00 0.00 0.00 51 1021.8
20260503030854 14 0.0 0.0 0.00 0.00 0.00 52 1022.0
20260503025855 14 0.0 0.0 0.00 0.00 0.00 52 1022.0
20260503024855 14 0.0 0.0 0.00 0.00 0.00 53 1022.2
20260503023854 15 0.0 0.0 0.00 0.00 0.00 51 1021.9
20260503022855 15 0.0 0.0 0.00 0.00 0.00 50 1022.0
20260503021855 15 0.0 0.0 0.00 0.00 0.00 51 1022.0
20260503020855 15 0.0 0.0 0.00 0.00 0.00 52 1022.1
20260503015855 15 0.0 0.0 0.00 0.00 0.00 52 1022.2
20260503014925 15 0.0 0.0 0.00 0.00 0.00 52 1022.1
20260503013855 15 0.0 0.0 0.00 0.00 0.00 53 1022.2
20260503012855 15 0.0 0.0 0.00 0.00 0.00 52 1022.1
20260503011856 16 0.0 0.0 0.00 0.00 0.00 51 1022.2
20260503010856 16 0.0 0.0 0.00 0.00 0.00 51 1022.3
20260503005857 16 0.0 0.0 0.00 0.00 0.00 52 1022.3
20260503004856 15 0.0 0.0 0.00 0.00 0.00 53 1022.5
20260503003855 16 0.0 0.0 0.00 0.00 0.00 50 1022.3
20260503002856 16 0.0 0.0 0.00 0.00 0.00 51 1022.3
20260503001856 15 0.0 0.0 0.00 0.00 0.00 51 1022.5
20260503000911 15 0.0 0.0 0.00 0.00 0.00 53 1022.7
20260502235910 17 0.0 0.0 0.00 0.00 0.00 49 1022.5
20260502234855 16 0.0 0.0 0.00 0.00 0.00 53 1022.8
20260502233855 16 0.0 0.0 0.00 0.00 0.00 53 1023.0
20260502232855 15 0.0 0.0 0.00 0.00 0.00 54 1023.2
20260502231855 16 0.0 0.0 0.00 0.00 0.00 52 1022.9
20260502230855 17 0.0 0.0 0.00 0.00 0.00 50 1022.9
20260502225856 16 0.0 0.0 0.00 0.00 0.00 52 1022.9
20260502224856 17 0.0 0.0 0.00 0.00 0.00 49 1022.7
20260502223856 17 0.0 0.0 0.00 0.00 0.00 51 1022.9
20260502222855 17 0.0 0.0 0.00 0.00 0.00 49 1022.8
20260502221911 18 0.0 0.0 0.00 0.00 0.00 47 1022.5
20260502220855 18 0.0 0.0 0.00 0.00 0.00 47 1022.6
20260502215856 18 0.0 0.0 0.00 0.00 0.00 47 1022.5
20260502214859 18 0.0 0.0 0.00 0.00 0.00 48 1022.5
20260502213856 17 0.0 0.0 0.00 0.00 0.00 50 1022.7
20260502212855 18 0.0 0.0 0.00 0.00 0.00 48 1022.4
20260502211910 17 0.0 0.0 0.00 0.00 0.00 50 1022.7
20260502210856 18 0.0 0.0 0.00 0.00 0.00 49 1022.7
20260502205856 18 0.0 0.0 0.00 0.00 0.00 47 1022.5
20260502204856 18 0.0 0.0 0.00 0.00 0.00 48 1022.6
20260502203856 18 0.0 0.0 0.00 0.00 0.00 49 1022.6
20260502202856 19 0.0 0.0 0.00 0.00 0.00 46 1022.3
20260502201856 20 0.0 0.0 0.00 0.00 0.00 44 1022.2
20260502200855 20 0.0 0.0 0.00 0.00 0.00 44 1022.1
20260502195900 20 0.0 0.0 0.00 0.00 0.00 45 1022.2
20260502194856 20 0.0 0.0 0.00 0.00 0.00 45 1022.3
20260502193855 20 0.0 0.0 0.00 0.00 0.00 45 1022.3
20260502192856 19 0.0 0.0 0.00 0.00 0.00 47 1022.3
20260502191856 21 0.0 0.0 0.00 0.00 0.00 42 1021.7
20260502190856 22 0.0 0.0 0.00 0.00 0.00 38 1021.1
20260502185856 23 0.0 0.0 0.00 0.00 0.00 37 1020.9
20260502184857 22 0.0 0.0 0.00 0.00 0.00 39 1021.1
20260502183857 21 0.0 0.0 0.00 0.00 0.00 39 1021.4
20260502182856 22 0.0 0.0 0.00 0.00 0.00 37 1020.9
20260502181856 20 0.0 0.0 0.00 0.00 0.00 40 1021.3